Погода в Марксе

Россия / Саратовская область     51°42′47″N   46°44′24″E
темп.,
°C
ветер,
м/с
пор.,
м/с
влажн.,
%
обл.,
%
осадки,
мм/ч
давл.,
гПа
погр.,
м
23 июня, ср
ср2301:00+23вюв22580 0.0 102012
04:00+22св22645 0.0 102015
07:00+24всв22630 0.0 1020103
10:00+30св22480 0.0 1020444
13:00+34в12350 0.0 10192003
16:00+34всв12290 0.0 10182972
19:00+33ссз224425 0.0 101854
22:00+24ссв35714 0.0 101992
24 июня, чт
чт2401:00+23ссв22690 0.0 101911
04:00+21с11730 0.0 101911
07:00+24св11690 0.0 1019118
10:00+29св23550 0.0 1019715
13:00+31ссв22450 0.0 10181713
16:00+32с32390 0.0 10182479
19:00+32ссв12470 0.0 10172119
22:00+22св367442 0.0 1017116
25 июня, пт
пт2501:00+21всв116449 0.0 101711
04:00+20с22645 0.0 101716
07:00+22св23660 0.0 1017165
10:00+27св22510 0.0 1017594
13:00+31св34430 0.0 10161404
16:00+33всв45395 0.0 10151869
19:00+31всв24513 0.0 1015236
22:00+22ссв347489 0.3 101549
26 июня, сб
сб2601:00+22ссв226599 0.0 101422
04:00+21ссв226945 0.0 101413
07:00+24ссв127083 0.0 1015106
10:00+30с125316 0.0 1014563
13:00+33с334348 0.0 10141768
16:00+34ссв33375 0.0 10132382
19:00+32ссв24495 0.0 1012223
22:00+25всв226747 0.0 101316
27 июня, вс
вс2701:00+24св22695 0.0 101311
04:00+23св22735 0.0 101311
07:00+25св23685 0.0 1014127
10:00+30в22522 0.0 1014761
13:00+33в11410 0.0 10141821
16:00+34всв22350 0.0 10132319
19:00+33ююв22455 0.0 1013156
22:00+27в345539 0.0 101374